Back to catalog

COSMOS 2596

AliveNavigationMEO
NORAD 65589·PAYLOAD·🇷🇺 Russia

Launched Sep 13, 2025 from Plesetsk Cosmodrome

Loading…

Next Passes (next 24 hours)

TLE

FreshSource: Space-Track

Epoch: Sep 14, 2026, 13:02 UTC

1 65589U 25206A   26257.54370946 -.00000054  00000-0  00000-0 0  9998
2 65589  64.5818 311.6579 0066134 304.1651  55.2829  2.14901372  7871

Track COSMOS 2596 in real time with AllMySat

Download on the App Store